[[{"header":{"parameterUnit":"m.s-1","parameterCategory":2,"la1":30.2991,"la2":30.254,"lo1":-89.0895,"lo2":-89.0444,"dy":0.0017,"dx":0.0017,"nx":28,"ny":28,"refTime":"2023-11-02T03:00:00:Z","depth":"0","parameterNumber":2,"parameterNumberName":"U-component_of_CURRENTS"},"data":[0,0,0,0,0,0,0,0,0,0,0,0,0,0,0,0,0,0,0,0,0,0,0,0,0,0,0,0,0,0,0,0,0,0,0,0,0,0,0,0,0,0,0,0,0,0,0,0,0,0,0,0,0,0,0,0,0,0,-0.3175,-0.3175,0,-0.3176,-0.3176,-0.3175,-0.3119,-0.3117,-0.3116,-0.3115,-0.3082,-0.3082,-0.3082,0,0,0,0,0,0,0,0,0,0,0,0,0,-0.3112,-0.3113,-0.3175,-0.3175,-0.3175,-0.3176,-0.3176,-0.3175,-0.3119,-0.3117,-0.3116,-0.3115,-0.3082,-0.3082,-0.3082,0,0,0,0,0,0,0,0,0,0,0,0,0,-0.3125,-0.3114,-0.3174,-0.3151,-0.3149,-0.3176,-0.3176,-0.3175,-0.3119,-0.3117,-0.3116,-0.3114,-0.3082,-0.3082,-0.3082,-0.3117,0,0,-0.3083,-0.3083,0,0,0,0,0,0,0,0,-0.3124,-0.3127,-0.3154,-0.3152,-0.315,-0.3149,-0.3142,-0.3155,-0.3119,-0.3126,-0.3115,-0.3113,-0.3105,-0.3104,-0.3102,-0.3115,-0.3114,-0.3083,-0.3083,-0.3083,-0.3083,0,0,0,0,0,0,0,-0.3123,-0.3126,-0.3171,-0.3154,-0.3152,-0.3136,-0.3136,-0.3144,-0.3121,-0.3125,-0.3122,-0.313,-0.3103,-0.3102,-0.3101,-0.3114,-0.3083,-0.3083,-0.3083,-0.3083,-0.3122,-0.3122,0,0,0,0,0,0,-0.3135,-0.3126,-0.3171,-0.3171,-0.3138,-0.3139,-0.3138,-0.3148,-0.3121,-0.3117,-0.3131,-0.3127,-0.3102,-0.31,-0.3099,-0.3113,-0.3083,-0.3083,-0.3084,-0.3121,-0.3122,-0.3123,0,0,0,0,0,0,-0.3134,-0.3139,-0.3171,-0.3152,-0.3155,-0.3143,-0.3153,-0.3149,-0.3144,-0.3127,-0.3121,-0.313,-0.3101,-0.3099,-0.3103,-0.3112,-0.3084,-0.3084,-0.312,-0.3121,-0.3122,-0.3157,0,0,0,0,0,0,-0.3132,-0.3139,-0.3143,-0.3153,-0.3157,-0.3192,-0.3155,-0.315,-0.3153,-0.3148,-0.3125,-0.312,-0.3099,-0.3103,-0.3104,-0.3112,-0.3084,-0.3118,-0.312,-0.3122,-0.3154,-0.3159,-0.3163,0,0,0,0,0,-0.313,-0.3148,-0.3144,-0.3149,-0.3166,-0.3194,-0.3194,-0.3176,-0.3155,-0.3163,-0.3141,-0.3121,-0.3113,-0.3105,-0.3105,-0.3113,-0.3118,-0.312,-0.3122,-0.3152,-0.3158,-0.3163,0,0,0,0,0,0,-0.3122,-0.3145,-0.314,-0.3163,-0.318,-0.3186,-0.3191,-0.3185,-0.3175,-0.3163,-0.3138,-0.3133,-0.3138,-0.3128,-0.3119,-0.3129,-0.3111,-0.3113,-0.3134,-0.3139,-0.3144,-0.3131,-0.3084,0,0,0,0,0,-0.3127,-0.3142,-0.3165,-0.3181,-0.3193,-0.3193,-0.32,-0.3194,-0.3192,-0.3185,-0.3171,-0.3156,-0.315,-0.3146,-0.3141,-0.3155,-0.3138,-0.316,-0.3164,-0.3168,-0.3159,-0.3148,-0.315,-0.3129,-0.3129,-0.3129,0,0,-0.3127,-0.3142,-0.3149,-0.318,-0.3186,-0.3205,-0.3191,-0.3209,-0.3213,-0.3186,-0.3183,-0.3175,-0.3158,-0.3163,-0.3165,-0.3154,-0.3167,-0.317,-0.3173,-0.3162,-0.315,-0.3152,-0.3154,-0.313,-0.313,-0.313,0,0,-0.3135,-0.3152,-0.3164,-0.3185,-0.3208,-0.3216,-0.3225,-0.3239,-0.3232,-0.3244,-0.3217,-0.3214,-0.3213,-0.3196,-0.3188,-0.3219,-0.3191,-0.3221,-0.323,-0.3221,-0.3222,-0.3223,-0.3211,-0.3211,-0.3221,-0.3221,-0.3221,0,-0.3128,-0.3147,-0.3172,-0.3193,-0.3204,-0.3223,-0.3236,-0.3247,-0.3256,-0.3254,-0.3246,-0.3236,-0.3225,-0.322,-0.3222,-0.3227,-0.3215,-0.3211,-0.3225,-0.3226,-0.3226,-0.3213,-0.3212,-0.3223,-0.3223,-0.3223,-0.3223,0,-0.314,-0.3158,-0.3172,-0.3197,-0.3221,-0.3239,-0.3266,-0.328,-0.3279,-0.3281,-0.3285,-0.3274,-0.3262,-0.3265,-0.3249,-0.3248,-0.3238,-0.3233,-0.3209,-0.323,-0.3216,-0.3214,-0.3226,-0.3225,-0.3225,-0.3224,0,0,-0.3095,-0.3164,-0.3162,-0.3172,-0.3221,-0.3237,-0.3266,-0.3287,-0.3291,-0.3305,-0.3304,-0.33,-0.3293,-0.3284,-0.3272,-0.3264,-0.3258,-0.3247,-0.3246,-0.323,-0.3235,-0.3156,-0.3146,-0.3255,-0.3255,-0.3255,-0.3227,0,-0.308,-0.3113,-0.3156,-0.3177,-0.3191,-0.3234,-0.3259,-0.3285,-0.3301,-0.3313,-0.3312,-0.331,-0.3302,-0.3294,-0.3288,-0.3267,-0.3254,-0.3266,-0.3221,-0.322,-0.3142,-0.3141,-0.3006,-0.2963,-0.3225,-0.3224,-0.3224,0,-0.3047,-0.308,-0.31,-0.3157,-0.3168,-0.3186,-0.3219,-0.3248,-0.3286,-0.3301,-0.3312,-0.3317,-0.3313,-0.3301,-0.3277,-0.3285,-0.3256,-0.324,-0.3239,-0.3147,-0.3136,-0.2984,-0.2949,-0.2926,-0.3221,-0.3221,-0.3222,0,-0.2963,-0.3025,-0.3035,-0.3055,-0.3132,-0.314,-0.3175,-0.3224,-0.3251,-0.3284,-0.3307,-0.3311,-0.3313,-0.3288,-0.3265,-0.3268,-0.3233,-0.3234,-0.3137,-0.3132,-0.2995,-0.2978,-0.2922,-0.3202,-0.3202,-0.3202,-0.3202,0,-0.2909,-0.2911,-0.2992,-0.2998,-0.3012,-0.3081,-0.3098,-0.3143,-0.3204,-0.3225,-0.3283,-0.3296,-0.3309,-0.3301,-0.3267,-0.3194,-0.3235,-0.3126,-0.3113,-0.3005,-0.2989,-0.2946,-0.2968,-0.3201,-0.3201,-0.3202,-0.3202,0,-0.2797,-0.2856,-0.2871,-0.2949,-0.2969,-0.297,-0.3057,-0.3065,-0.3152,-0.3182,-0.3195,-0.328,-0.3266,-0.327,-0.3234,-0.3187,-0.3066,-0.3091,-0.2963,-0.2933,-0.2801,-0.283,-0.2744,-0.2667,-0.2969,-0.2967,-0.2965,0,-0.274,-0.2736,-0.2812,-0.281,-0.2835,-0.2868,-0.2883,-0.3003,-0.3029,-0.3156,-0.3154,-0.3198,-0.3185,-0.3134,-0.3059,-0.298,-0.2976,-0.2815,-0.2785,-0.276,-0.2785,-0.2803,-0.2747,-0.2629,-0.2624,-0.2621,-0.2618,0,-0.2618,-0.2643,-0.2656,-0.2671,-0.268,-0.272,-0.2764,-0.2796,-0.2926,-0.2976,-0.3028,-0.3038,-0.3022,-0.2898,-0.2826,-0.2758,-0.2732,-0.2736,-0.2738,-0.2527,-0.2514,-0.2444,-0.2698,-0.2585,-0.2588,-0.2591,-0.2592,-0.2594,-0.2495,-0.248,-0.2494,-0.2492,-0.2518,-0.2536,-0.2512,-0.2591,-0.2636,-0.2676,-0.28,-0.2778,-0.2758,-0.2634,-0.2578,-0.2427,-0.2493,-0.2343,-0.2387,-0.2414,-0.2311,-0.2491,-0.2347,-0.2349,-0.2351,-0.2352,-0.2353,0,-0.2323,-0.2319,-0.231,-0.2308,-0.2271,-0.2352,-0.2389,-0.2341,-0.2329,-0.2431,-0.2443,-0.2457,-0.2337,-0.2337,-0.2217,-0.2116,-0.2067,-0.2067,-0.2066,-0.2028,-0.2193,-0.2148,-0.1919,-0.1919,-0.1919,-0.1919,-0.1919,-0.1919,-0.2223,-0.2152,-0.2163,-0.2051,-0.2046,-0.1954,-0.1939,-0.1916,-0.1955,-0.1953,-0.2008,-0.2103,-0.2135,-0.2238,-0.2088,-0.1978,-0.1937,-0.1857,-0.1909,-0.2046,-0.2076,-0.2104,-0.2065,-0.1823,-0.1823,-0.165,-0.1649,-0.1649]},{"header":{"parameterUnit":"m.s-1","parameterCategory":2,"la1":30.2991,"la2":30.254,"lo1":-89.0895,"lo2":-89.0444,"dy":0.0017,"dx":0.0017,"nx":28,"ny":28,"refTime":"2023-11-02T03:00:00:Z","depth":"0","parameterNumber":3,"parameterNumberName":"V-component_of_CURRENTS"},"data":[0,0,0,0,0,0,0,0,0,0,0,0,0,0,0,0,0,0,0,0,0,0,0,0,0,0,0,0,0,0,0,0,0,0,0,0,0,0,0,0,0,0,0,0,0,0,0,0,0,0,0,0,0,0,0,0,0,0,-0.0434,-0.0433,0,-0.0327,-0.0326,-0.0325,-0.0262,-0.0261,-0.0261,-0.0261,-0.0098,-0.0094,-0.009,0,0,0,0,0,0,0,0,0,0,0,0,0,-0.0526,-0.0525,-0.0434,-0.0433,-0.0431,-0.0327,-0.0326,-0.0324,-0.0262,-0.0261,-0.0261,-0.0261,-0.01,-0.0095,-0.009,0,0,0,0,0,0,0,0,0,0,0,0,0,-0.0459,-0.0524,-0.0434,-0.0388,-0.0383,-0.0327,-0.0326,-0.0324,-0.0262,-0.0261,-0.0261,-0.0261,-0.0101,-0.0095,-0.0089,-0.0058,0,0,-0.007,-0.0068,0,0,0,0,0,0,0,0,-0.0463,-0.0456,-0.0396,-0.0391,-0.0385,-0.0307,-0.0298,-0.0232,-0.0262,-0.0307,-0.0261,-0.0261,-0.0163,-0.0152,-0.0133,-0.0051,-0.0044,-0.007,-0.0066,-0.0063,-0.0062,0,0,0,0,0,0,0,-0.0468,-0.046,-0.0391,-0.0395,-0.0388,-0.0352,-0.0343,-0.0285,-0.0238,-0.0303,-0.0299,-0.0287,-0.016,-0.0139,-0.0129,-0.0041,-0.007,-0.0064,-0.0061,-0.0058,0.0083,0.0083,0,0,0,0,0,0,-0.0485,-0.0464,-0.0395,-0.0388,-0.0424,-0.0351,-0.0341,-0.0333,-0.0239,-0.0225,-0.0288,-0.0285,-0.015,-0.0136,-0.0123,-0.0078,-0.0063,-0.0058,-0.0054,0.0083,0.0083,0.0083,0,0,0,0,0,0,-0.0487,-0.048,-0.0399,-0.0424,-0.0411,-0.035,-0.0342,-0.0331,-0.0309,-0.0228,-0.0213,-0.0277,-0.0149,-0.0131,-0.0074,-0.0071,-0.0055,-0.0049,0.0083,0.0083,0.0083,0.001,0,0,0,0,0,0,-0.049,-0.0481,-0.0483,-0.0425,-0.041,-0.0373,-0.0342,-0.0329,-0.0303,-0.0298,-0.0214,-0.0198,-0.0148,-0.0084,-0.0068,-0.0062,-0.0044,0.0083,0.0083,0.0083,0.0013,0.0008,0.0004,0,0,0,0,0,-0.0494,-0.0499,-0.0484,-0.0476,-0.0415,-0.0373,-0.0362,-0.0317,-0.0303,-0.0296,-0.024,-0.0201,-0.0072,-0.0079,-0.006,-0.0053,0.0083,0.0083,0.0083,0.0015,0.0009,0.0004,0,0,0,0,0,0,-0.054,-0.0491,-0.0474,-0.0464,-0.0425,-0.0363,-0.0353,-0.0323,-0.0274,-0.027,-0.0196,-0.0176,-0.0127,-0.008,-0.009,-0.0013,0.001,0.0014,-0.0048,-0.0052,-0.0057,-0.0075,-0.0039,0,0,0,0,0,-0.0553,-0.0544,-0.049,-0.0485,-0.0468,-0.0413,-0.0392,-0.0362,-0.031,-0.0289,-0.0229,-0.0168,-0.0112,-0.0077,-0.0023,0.0024,0.007,0.004,0.0035,0.0031,0.0028,0.009,0.0091,0.0083,0.0083,0.0083,0,0,-0.0572,-0.0542,-0.0539,-0.0494,-0.0462,-0.0443,-0.0399,-0.0373,-0.0354,-0.0278,-0.0236,-0.0181,-0.0105,-0.0057,-0.003,-0.0016,0.0059,0.0031,0.0027,0.0027,0.009,0.0091,0.0092,0.0083,0.0083,0.0083,0,0,-0.0603,-0.0578,-0.0581,-0.0551,-0.0507,-0.047,-0.0467,-0.0406,-0.0377,-0.033,-0.0274,-0.022,-0.0133,-0.0078,-0.0039,-0.0034,0.0029,-0.0018,-0.0046,0.0014,0.0015,0.0016,0.0078,0.0086,-0.0015,-0.0015,-0.0015,0,-0.063,-0.0622,-0.0576,-0.0567,-0.055,-0.0488,-0.0487,-0.0444,-0.0373,-0.0349,-0.0328,-0.0205,-0.0142,-0.0077,-0.0076,-0.0043,-0.0,-0.0034,0.0007,0.0009,0.0012,0.0076,0.0085,-0.0018,-0.0018,-0.0018,-0.0017,0,-0.0657,-0.0651,-0.065,-0.062,-0.0595,-0.0585,-0.0524,-0.0495,-0.0454,-0.0405,-0.0339,-0.0254,-0.0182,-0.0152,-0.0109,-0.0058,-0.0031,-0.0012,0.0016,0.0008,0.0076,0.0087,-0.0023,-0.0022,-0.0021,-0.002,0,0,-0.0722,-0.068,-0.0682,-0.068,-0.0625,-0.061,-0.0578,-0.053,-0.0512,-0.0435,-0.0398,-0.0301,-0.0256,-0.0209,-0.0145,-0.0087,-0.0028,-0.0047,-0.0043,0.0006,0.0108,0.0163,0.0181,-0.0004,-0.0003,-0.0002,0.0148,0,-0.0762,-0.0768,-0.0729,-0.0736,-0.0736,-0.0673,-0.065,-0.0597,-0.0539,-0.0486,-0.0389,-0.033,-0.0275,-0.0242,-0.0177,-0.0063,-0.0003,-0.0069,0.0115,0.0121,0.0164,0.0194,0.0226,0.0365,0.0159,0.0161,0.0162,0,-0.0804,-0.0803,-0.0819,-0.0798,-0.0792,-0.0783,-0.0742,-0.0711,-0.0618,-0.0572,-0.0493,-0.0411,-0.0304,-0.0267,-0.0078,-0.0124,-0.002,0.0068,0.0076,0.016,0.0197,0.0341,0.0394,0.0556,0.018,0.0178,0.0177,0,-0.0878,-0.0869,-0.0887,-0.0878,-0.0839,-0.0836,-0.0815,-0.0742,-0.0721,-0.0624,-0.0593,-0.0457,-0.0381,-0.0239,-0.0049,-0.0064,0.016,0.0164,0.0315,0.032,0.0402,0.0412,0.0627,0.0288,0.0287,0.0287,0.0286,0,-0.0935,-0.0951,-0.0926,-0.0936,-0.0964,-0.0909,-0.0917,-0.0873,-0.0807,-0.0779,-0.0647,-0.0584,-0.0372,-0.0212,-0.0057,0.0177,0.0161,0.0322,0.0367,0.0378,0.0384,0.0572,0.0632,0.0292,0.0291,0.029,0.0289,0,-0.1005,-0.0986,-0.1013,-0.0998,-0.0998,-0.102,-0.1,-0.0998,-0.0925,-0.0882,-0.0853,-0.0666,-0.0444,-0.0221,0.0038,0.0175,0.0496,0.0464,0.0467,0.051,0.0783,0.0836,0.1094,0.1197,0.065,0.0652,0.0654,0,-0.1037,-0.1056,-0.1073,-0.1099,-0.1095,-0.1114,-0.1123,-0.107,-0.1058,-0.0925,-0.0904,-0.0682,-0.05,-0.0088,0.0201,0.0505,0.0619,0.0695,0.0672,0.0822,0.0914,0.0945,0.1013,0.0757,0.076,0.0762,0.0763,0,-0.1099,-0.1104,-0.1125,-0.1181,-0.121,-0.124,-0.1243,-0.1251,-0.1168,-0.1097,-0.0947,-0.0787,-0.0371,0.002,0.0417,0.0583,0.0823,0.0748,0.0912,0.1028,0.107,0.1181,0.0633,0.0783,0.0781,0.0779,0.0778,0.0778,-0.1142,-0.118,-0.1205,-0.1258,-0.1301,-0.1339,-0.1348,-0.1318,-0.1275,-0.1131,-0.0979,-0.0697,-0.0141,0.0442,0.065,0.1068,0.1012,0.117,0.1226,0.1247,0.1338,0.0832,0.1021,0.1021,0.102,0.102,0.1019,0,-0.1181,-0.1214,-0.1274,-0.1332,-0.1386,-0.1386,-0.14,-0.1365,-0.1287,-0.1112,-0.0917,-0.0323,0.0226,0.0715,0.1327,0.154,0.1575,0.1625,0.1679,0.173,0.1302,0.1297,0.1545,0.1545,0.1544,0.1544,0.1544,0.1544,-0.1201,-0.1256,-0.1286,-0.1378,-0.1417,-0.1444,-0.1441,-0.1355,-0.1216,-0.0882,-0.0555,-0.0293,0.0409,0.1411,0.1956,0.1985,0.2165,0.2126,0.2236,0.1932,0.1893,0.1856,0.1868,0.2232,0.2232,0.2644,0.2648,0.2651]}],[{"header":{"parameterUnit":"m.s-1","parameterCategory":2,"la1":30.2991,"la2":30.254,"lo1":-89.0895,"lo2":-89.0444,"dy":0.0017,"dx":0.0017,"nx":28,"ny":28,"refTime":"2023-11-02T03:00:00:Z","depth":"2","parameterNumber":2,"parameterNumberName":"U-component_of_CURRENTS"},"data":[0,0,0,0,0,0,0,0,0,0,0,0,0,0,0,0,0,0,0,0,0,0,0,0,0,0,0,0,0,0,0,0,0,0,0,0,0,0,0,0,0,0,0,0,0,0,0,0,0,0,0,0,0,0,0,0,0,0,-0.2789,-0.279,0,-0.2799,-0.2799,-0.2799,-0.2758,-0.2757,-0.2756,-0.2755,-0.2733,-0.2733,-0.2733,0,0,0,0,0,0,0,0,0,0,0,0,0,-0.2709,-0.271,-0.2789,-0.279,-0.279,-0.2799,-0.2799,-0.2799,-0.2758,-0.2757,-0.2756,-0.2755,-0.2733,-0.2733,-0.2733,0,0,0,0,0,0,0,0,0,0,0,0,0,-0.273,-0.2711,-0.2789,-0.2774,-0.2773,-0.2799,-0.2799,-0.2799,-0.2758,-0.2757,-0.2756,-0.2755,-0.2733,-0.2733,-0.2733,-0.276,0,0,-0.2734,-0.2734,0,0,0,0,0,0,0,0,-0.2729,-0.2732,-0.2776,-0.2775,-0.2774,-0.278,-0.2763,-0.2785,-0.2759,-0.2759,-0.2755,-0.2754,-0.2749,-0.2748,-0.2747,-0.2759,-0.2758,-0.2734,-0.2734,-0.2734,-0.2734,0,0,0,0,0,0,0,-0.2727,-0.2731,-0.2789,-0.2777,-0.2776,-0.2758,-0.2759,-0.2766,-0.2757,-0.2759,-0.2757,-0.2766,-0.2748,-0.2747,-0.2746,-0.2757,-0.2734,-0.2734,-0.2734,-0.2734,-0.2778,-0.2779,0,0,0,0,0,0,-0.2738,-0.2731,-0.2789,-0.279,-0.2753,-0.2761,-0.2762,-0.2776,-0.2758,-0.2755,-0.2767,-0.2764,-0.2747,-0.2746,-0.2745,-0.2769,-0.2734,-0.2734,-0.2735,-0.2777,-0.2778,-0.2779,0,0,0,0,0,0,-0.2736,-0.2743,-0.2788,-0.2763,-0.2768,-0.2764,-0.2779,-0.2777,-0.2779,-0.2765,-0.276,-0.2772,-0.2746,-0.2745,-0.2755,-0.2768,-0.2735,-0.2735,-0.2776,-0.2777,-0.2779,-0.282,0,0,0,0,0,0,-0.2734,-0.2742,-0.2752,-0.2764,-0.277,-0.2812,-0.2781,-0.2778,-0.2788,-0.2784,-0.2768,-0.2764,-0.2745,-0.2754,-0.2755,-0.2767,-0.2735,-0.2775,-0.2777,-0.2778,-0.2817,-0.2823,-0.2827,0,0,0,0,0,-0.2731,-0.2753,-0.2753,-0.276,-0.2786,-0.2814,-0.2815,-0.2804,-0.2789,-0.2799,-0.2785,-0.2765,-0.2766,-0.2756,-0.2756,-0.2769,-0.2774,-0.2776,-0.2778,-0.2815,-0.2822,-0.2827,0,0,0,0,0,0,-0.2722,-0.2752,-0.2752,-0.2781,-0.28,-0.2808,-0.2817,-0.2815,-0.2812,-0.2804,-0.2782,-0.2778,-0.279,-0.278,-0.2769,-0.2788,-0.2766,-0.2768,-0.2794,-0.28,-0.2805,-0.2795,-0.2735,0,0,0,0,0,-0.2728,-0.2749,-0.2776,-0.2798,-0.2811,-0.2817,-0.2826,-0.2824,-0.2826,-0.2823,-0.2815,-0.2804,-0.2802,-0.2801,-0.2798,-0.2815,-0.2796,-0.2823,-0.2828,-0.2832,-0.2825,-0.2815,-0.2818,-0.2787,-0.2787,-0.2787,0,0,-0.2728,-0.2749,-0.2759,-0.2797,-0.2807,-0.2829,-0.2818,-0.284,-0.2849,-0.2823,-0.2831,-0.2826,-0.2811,-0.2822,-0.2827,-0.2814,-0.2834,-0.2835,-0.2839,-0.2829,-0.2817,-0.282,-0.2823,-0.2788,-0.2788,-0.2788,0,0,-0.2738,-0.2763,-0.278,-0.2803,-0.2833,-0.2842,-0.2854,-0.2873,-0.2872,-0.289,-0.2867,-0.2871,-0.2874,-0.2861,-0.2855,-0.2891,-0.2862,-0.2895,-0.291,-0.29,-0.2902,-0.2904,-0.2891,-0.2891,-0.2895,-0.2895,-0.2895,0,-0.2733,-0.276,-0.2789,-0.2815,-0.283,-0.2851,-0.287,-0.2883,-0.2899,-0.2902,-0.2897,-0.2898,-0.2889,-0.2891,-0.2898,-0.2901,-0.2889,-0.2887,-0.2906,-0.2907,-0.2907,-0.2894,-0.2893,-0.2897,-0.2897,-0.2897,-0.2897,0,-0.2751,-0.2776,-0.2793,-0.2827,-0.2853,-0.2876,-0.2906,-0.2925,-0.2931,-0.2937,-0.295,-0.2943,-0.2938,-0.2943,-0.2928,-0.2934,-0.2922,-0.2914,-0.2887,-0.2913,-0.2897,-0.2896,-0.2901,-0.29,-0.2899,-0.2898,0,0,-0.2716,-0.2789,-0.279,-0.2805,-0.286,-0.2878,-0.2913,-0.294,-0.2952,-0.2972,-0.2979,-0.2983,-0.2979,-0.2972,-0.2962,-0.2955,-0.2954,-0.2938,-0.2936,-0.292,-0.2931,-0.2849,-0.2839,-0.2949,-0.2949,-0.2949,-0.292,0,-0.271,-0.2751,-0.2794,-0.2824,-0.2844,-0.2888,-0.2917,-0.2948,-0.297,-0.2988,-0.2992,-0.2997,-0.2991,-0.2987,-0.2984,-0.2962,-0.2952,-0.2963,-0.2913,-0.2911,-0.283,-0.2835,-0.2626,-0.2576,-0.2919,-0.2918,-0.2918,0,-0.269,-0.2726,-0.2755,-0.2815,-0.2829,-0.2852,-0.2895,-0.2926,-0.2969,-0.2988,-0.3006,-0.3012,-0.3013,-0.3001,-0.2979,-0.2987,-0.2958,-0.2941,-0.294,-0.2843,-0.2826,-0.2605,-0.256,-0.2915,-0.2916,-0.2916,-0.2916,0,-0.2618,-0.2686,-0.2703,-0.2725,-0.2804,-0.282,-0.2857,-0.2911,-0.2939,-0.298,-0.3005,-0.3014,-0.3018,-0.2994,-0.2968,-0.2972,-0.2936,-0.2936,-0.2836,-0.283,-0.263,-0.2606,-0.2907,-0.2907,-0.2907,-0.2907,-0.2908,0,-0.2576,-0.2586,-0.2669,-0.2679,-0.2703,-0.2771,-0.2799,-0.2846,-0.2907,-0.2928,-0.2989,-0.3,-0.3016,-0.3005,-0.2971,-0.2895,-0.2937,-0.2829,-0.2812,-0.264,-0.2618,-0.2894,-0.2893,-0.2906,-0.2907,-0.2907,-0.2907,0,-0.2479,-0.2537,-0.2562,-0.2644,-0.2667,-0.2677,-0.2766,-0.2777,-0.2863,-0.2894,-0.2908,-0.2987,-0.2969,-0.2972,-0.2934,-0.2888,-0.2829,-0.2789,-0.2587,-0.2546,-0.273,-0.2732,-0.2672,-0.2669,-0.2666,-0.2664,-0.2662,0,-0.2431,-0.2433,-0.2515,-0.252,-0.2552,-0.2592,-0.261,-0.2725,-0.2749,-0.2866,-0.2862,-0.2899,-0.2877,-0.2821,-0.2744,-0.2664,-0.2748,-0.2433,-0.2396,-0.2714,-0.2704,-0.271,-0.2715,-0.2153,-0.2147,-0.2142,-0.2138,0,-0.2326,-0.2355,-0.2373,-0.24,-0.2418,-0.2458,-0.2504,-0.2531,-0.2649,-0.2689,-0.2724,-0.2722,-0.2697,-0.2528,-0.2456,-0.238,-0.2431,-0.2331,-0.2697,-0.2252,-0.2223,-0.2215,-0.2237,-0.2095,-0.2099,-0.2103,-0.2105,-0.2107,-0.222,-0.2211,-0.2234,-0.2244,-0.2274,-0.229,-0.2266,-0.2331,-0.236,-0.2377,-0.2486,-0.2416,-0.242,-0.2195,-0.2089,-0.2006,-0.2166,-0.2063,-0.2078,-0.2098,-0.205,-0.2019,-0.1843,-0.1846,-0.1848,-0.185,-0.1852,0,-0.2069,-0.2071,-0.2073,-0.208,-0.2049,-0.2128,-0.2153,-0.2097,-0.2062,-0.2118,-0.2107,-0.1911,-0.1811,-0.1822,-0.1631,-0.1598,-0.1584,-0.1529,-0.1509,-0.1552,-0.159,-0.1517,-0.1168,-0.1167,-0.1165,-0.1163,0,0,-0.1981,-0.1925,-0.1937,-0.1844,-0.1845,-0.1757,-0.1736,-0.1688,-0.169,-0.1609,-0.1576,-0.1703,-0.1766,-0.1473,-0.1403,-0.1256,-0.139,-0.1191,-0.1737,-0.1756,-0.1792,-0.1891,-0.1825,0,0,0,0,0]},{"header":{"parameterUnit":"m.s-1","parameterCategory":2,"la1":30.2991,"la2":30.254,"lo1":-89.0895,"lo2":-89.0444,"dy":0.0017,"dx":0.0017,"nx":28,"ny":28,"refTime":"2023-11-02T03:00:00:Z","depth":"2","parameterNumber":3,"parameterNumberName":"V-component_of_CURRENTS"},"data":[0,0,0,0,0,0,0,0,0,0,0,0,0,0,0,0,0,0,0,0,0,0,0,0,0,0,0,0,0,0,0,0,0,0,0,0,0,0,0,0,0,0,0,0,0,0,0,0,0,0,0,0,0,0,0,0,0,0,-0.0359,-0.0358,0,-0.0262,-0.0261,-0.026,-0.0201,-0.0201,-0.0201,-0.0201,-0.0051,-0.0047,-0.0043,0,0,0,0,0,0,0,0,0,0,0,0,0,-0.0433,-0.0433,-0.0359,-0.0358,-0.0357,-0.0263,-0.0261,-0.026,-0.0202,-0.0201,-0.0201,-0.0201,-0.0052,-0.0047,-0.0043,0,0,0,0,0,0,0,0,0,0,0,0,0,-0.0375,-0.0433,-0.036,-0.0317,-0.0312,-0.0263,-0.0261,-0.026,-0.0202,-0.0201,-0.0201,-0.02,-0.0053,-0.0048,-0.0042,-0.0015,0,0,-0.0025,-0.0023,0,0,0,0,0,0,0,0,-0.0379,-0.0373,-0.0324,-0.0319,-0.0314,-0.0244,-0.0232,-0.0175,-0.0202,-0.0243,-0.0201,-0.02,-0.0111,-0.01,-0.0083,-0.0008,-0.0002,-0.0025,-0.0021,-0.0019,-0.0017,0,0,0,0,0,0,0,-0.0383,-0.0376,-0.0321,-0.0323,-0.0317,-0.0281,-0.0273,-0.0221,-0.0179,-0.024,-0.0235,-0.0225,-0.0107,-0.0089,-0.0079,0.0,-0.0025,-0.002,-0.0016,-0.0014,0.0112,0.0112,0,0,0,0,0,0,-0.0399,-0.038,-0.0324,-0.0318,-0.0346,-0.0281,-0.0272,-0.0267,-0.0181,-0.0168,-0.0225,-0.0222,-0.0099,-0.0086,-0.0074,-0.0031,-0.0019,-0.0013,-0.001,0.0112,0.0112,0.0112,0,0,0,0,0,0,-0.0401,-0.0395,-0.0328,-0.0347,-0.0336,-0.028,-0.0275,-0.0265,-0.0246,-0.0171,-0.0156,-0.0216,-0.0098,-0.0082,-0.003,-0.0025,-0.0011,-0.0006,0.0113,0.0112,0.0112,0.005,0,0,0,0,0,0,-0.0404,-0.0397,-0.0401,-0.0348,-0.0335,-0.0305,-0.0275,-0.0263,-0.024,-0.0235,-0.0158,-0.0144,-0.0096,-0.0039,-0.0025,-0.0017,-0.0001,0.0113,0.0112,0.0112,0.0052,0.0048,0.0044,0,0,0,0,0,-0.0407,-0.0414,-0.0402,-0.0395,-0.0342,-0.0306,-0.0296,-0.0255,-0.024,-0.0235,-0.0183,-0.0146,-0.0029,-0.0035,-0.0018,-0.0008,0.0113,0.0113,0.0112,0.0054,0.0049,0.0044,0,0,0,0,0,0,-0.0449,-0.0407,-0.0393,-0.0387,-0.0353,-0.0296,-0.0289,-0.026,-0.0216,-0.0212,-0.0143,-0.0125,-0.008,-0.0037,-0.0045,0.0027,0.0047,0.005,-0.0004,-0.0008,-0.0012,-0.0026,0.0003,0,0,0,0,0,-0.0462,-0.0458,-0.041,-0.0408,-0.0393,-0.0343,-0.0324,-0.0297,-0.025,-0.0231,-0.0176,-0.0119,-0.0067,-0.0034,0.0015,0.0058,0.0101,0.0074,0.007,0.0066,0.0066,0.0127,0.0129,0.0112,0.0112,0.0112,0,0,-0.0479,-0.0455,-0.0454,-0.0417,-0.0388,-0.0371,-0.0331,-0.0309,-0.029,-0.022,-0.0182,-0.0132,-0.0061,-0.0016,0.0008,0.0023,0.0093,0.0066,0.0063,0.0064,0.0127,0.0129,0.0131,0.0112,0.0112,0.0112,0,0,-0.051,-0.0491,-0.0496,-0.047,-0.0431,-0.0398,-0.0395,-0.0341,-0.0313,-0.0271,-0.0218,-0.0167,-0.0089,-0.0035,0.0002,0.0007,0.0065,0.002,-0.0001,0.0058,0.006,0.0063,0.0116,0.0123,0.0025,0.0025,0.0025,0,-0.0535,-0.053,-0.0492,-0.0485,-0.0469,-0.0415,-0.0412,-0.0374,-0.031,-0.0285,-0.0269,-0.0154,-0.0096,-0.003,-0.0029,-0.0,0.0038,0.001,0.0053,0.0056,0.0059,0.0114,0.0123,0.0022,0.0022,0.0022,0.0023,0,-0.0561,-0.0557,-0.0558,-0.0533,-0.0511,-0.0502,-0.0446,-0.042,-0.0382,-0.0336,-0.0273,-0.0195,-0.0125,-0.0099,-0.0059,-0.0006,0.0015,0.0034,0.0062,0.0057,0.0115,0.0125,0.0017,0.0019,0.0019,0.002,0,0,-0.0623,-0.0586,-0.0588,-0.0585,-0.0537,-0.0524,-0.0493,-0.0445,-0.0426,-0.0357,-0.0318,-0.0228,-0.0186,-0.0141,-0.0082,-0.0025,0.0032,0.0009,0.0013,0.0056,0.016,0.0196,0.0211,0.0057,0.0058,0.006,0.0189,0,-0.0658,-0.0665,-0.063,-0.0635,-0.0634,-0.0576,-0.0553,-0.0502,-0.0449,-0.0397,-0.0304,-0.0249,-0.02,-0.017,-0.0105,-0.0001,0.0057,-0.0005,0.0163,0.0168,0.0197,0.0224,0.019,0.0305,0.02,0.0201,0.0203,0,-0.0699,-0.0697,-0.071,-0.0686,-0.0681,-0.0673,-0.0631,-0.0601,-0.051,-0.0467,-0.0391,-0.0316,-0.0214,-0.0182,-0.0006,-0.0049,0.0045,0.0125,0.0132,0.0196,0.0225,0.0295,0.0329,0.0221,0.022,0.0218,0.0217,0,-0.0765,-0.0755,-0.0769,-0.0761,-0.0722,-0.0719,-0.0698,-0.0627,-0.0605,-0.0512,-0.0483,-0.0352,-0.0285,-0.015,0.0018,0.0006,0.021,0.0218,0.0342,0.0346,0.0367,0.037,0.0337,0.0337,0.0336,0.0336,0.0336,0,-0.0816,-0.0829,-0.0806,-0.0814,-0.0836,-0.0784,-0.0788,-0.0745,-0.0682,-0.0654,-0.0531,-0.0474,-0.0275,-0.0131,0.0011,0.0217,0.0211,0.0349,0.0388,0.0344,0.0343,0.0307,0.0302,0.0341,0.034,0.0339,0.0338,0,-0.0879,-0.0862,-0.0885,-0.0868,-0.0868,-0.0887,-0.0865,-0.0861,-0.0792,-0.0751,-0.0725,-0.0554,-0.0357,-0.0152,0.0086,0.0211,0.0399,0.0469,0.0404,0.0433,0.0494,0.0484,0.0621,0.0624,0.0626,0.0628,0.0629,0,-0.091,-0.0926,-0.0941,-0.0964,-0.0961,-0.0975,-0.0982,-0.0929,-0.0915,-0.0797,-0.0777,-0.0582,-0.0422,-0.0053,0.0203,0.0477,0.0467,0.0591,0.0568,0.0502,0.0526,0.0512,0.05,0.0572,0.0572,0.0573,0.0574,0,-0.0966,-0.0972,-0.099,-0.1041,-0.1068,-0.1091,-0.1091,-0.1096,-0.1018,-0.0957,-0.0827,-0.0688,-0.0326,-0.0009,0.0343,0.0486,0.0546,0.0615,0.0584,0.0499,0.0465,0.0484,0.0472,0.058,0.058,0.0579,0.0579,0.0578,-0.1008,-0.1042,-0.1067,-0.1115,-0.1153,-0.1183,-0.119,-0.1161,-0.1123,-0.0994,-0.0866,-0.0626,-0.032,0.0191,0.0438,0.0652,0.0642,0.0692,0.0686,0.068,0.0646,0.0617,0.0754,0.0755,0.0755,0.0755,0.0755,0,-0.1046,-0.1078,-0.1132,-0.1185,-0.1233,-0.1232,-0.1238,-0.1205,-0.114,-0.0987,-0.0821,-0.0484,-0.0124,0.018,0.054,0.0755,0.072,0.0772,0.0692,0.0685,0.0678,0.064,0.075,0.075,0.0751,0.0751,0,0,-0.1066,-0.1117,-0.1144,-0.123,-0.1268,-0.1294,-0.1289,-0.1209,-0.1085,-0.0911,-0.073,-0.0477,-0.0104,0.0152,0.0423,0.0606,0.0584,0.0608,0.059,0.0458,0.0449,0.0611,0.0541,0,0,0,0,0]}],[{"header":{"parameterUnit":"m.s-1","parameterCategory":2,"la1":30.2991,"la2":30.254,"lo1":-89.0895,"lo2":-89.0444,"dy":0.0017,"dx":0.0017,"nx":28,"ny":28,"refTime":"2023-11-02T03:00:00:Z","depth":"4","parameterNumber":2,"parameterNumberName":"U-component_of_CURRENTS"},"data":[0,0,0,0,0,0,0,0,0,0,0,0,0,0,0,0,0,0,0,0,0,0,0,0,0,0,0,0,0,0,0,0,0,0,0,0,0,0,0,0,0,0,0,0,0,0,0,0,0,0,0,0,0,0,0,0,0,0,-0.1959,-0.196,0,-0.2017,-0.2017,-0.2018,-0.2049,-0.205,-0.205,-0.205,-0.2105,-0.2106,-0.2107,0,0,0,0,0,0,0,0,0,0,0,0,0,-0.1849,-0.1851,-0.1959,-0.196,-0.1961,-0.2017,-0.2017,-0.2018,-0.2049,-0.205,-0.205,-0.2051,-0.2105,-0.2106,-0.2107,0,0,0,0,0,0,0,0,0,0,0,0,0,-0.1898,-0.1851,-0.1959,-0.1986,-0.1989,-0.2017,-0.2017,-0.2018,-0.2049,-0.205,-0.205,-0.2051,-0.2104,-0.2106,-0.2108,-0.2107,0,0,-0.2113,-0.2114,0,0,0,0,0,0,0,0,-0.1895,-0.1902,-0.1981,-0.1984,-0.1988,-0.2029,-0.1999,-0.2049,-0.2049,-0.2023,-0.205,-0.2051,-0.2081,-0.2085,-0.209,-0.211,-0.2112,-0.2113,-0.2114,-0.2115,-0.2115,0,0,0,0,0,0,0,-0.1892,-0.1899,-0.1979,-0.1982,-0.1986,-0.1986,-0.1993,-0.2008,-0.2046,-0.2025,-0.2029,-0.204,-0.2083,-0.2088,-0.2092,-0.2113,-0.2113,-0.2114,-0.2115,-0.2116,-0.2214,-0.2215,0,0,0,0,0,0,-0.1892,-0.1896,-0.1977,-0.1981,-0.1945,-0.1988,-0.1996,-0.2013,-0.2046,-0.2053,-0.2039,-0.2041,-0.2085,-0.209,-0.2094,-0.2171,-0.2115,-0.2116,-0.2117,-0.2212,-0.2214,-0.2216,0,0,0,0,0,0,-0.1889,-0.1899,-0.1975,-0.1942,-0.1952,-0.199,-0.2008,-0.2014,-0.2055,-0.2057,-0.2063,-0.2079,-0.2086,-0.2091,-0.2138,-0.2171,-0.2117,-0.2119,-0.221,-0.2213,-0.2215,-0.2278,0,0,0,0,0,0,-0.1886,-0.1897,-0.1925,-0.1942,-0.1954,-0.2016,-0.2008,-0.2015,-0.206,-0.2064,-0.2093,-0.2096,-0.2087,-0.2136,-0.214,-0.2172,-0.212,-0.2208,-0.2211,-0.2214,-0.2273,-0.2282,-0.2289,0,0,0,0,0,-0.1882,-0.1912,-0.1926,-0.1937,-0.1986,-0.2018,-0.2024,-0.2049,-0.2062,-0.2087,-0.2108,-0.2097,-0.2157,-0.2139,-0.2143,-0.2176,-0.2207,-0.2211,-0.2214,-0.227,-0.228,-0.2289,0,0,0,0,0,0,-0.1882,-0.1919,-0.1935,-0.1977,-0.2008,-0.2025,-0.2056,-0.2072,-0.2108,-0.2122,-0.212,-0.2125,-0.2176,-0.2171,-0.2151,-0.2213,-0.218,-0.2184,-0.2221,-0.223,-0.2238,-0.2226,-0.2121,0,0,0,0,0,-0.1894,-0.1928,-0.1959,-0.1997,-0.2017,-0.2044,-0.2068,-0.2086,-0.2113,-0.2131,-0.2152,-0.2171,-0.2188,-0.2207,-0.222,-0.2259,-0.2234,-0.2283,-0.2291,-0.2297,-0.2291,-0.2286,-0.2292,-0.2228,-0.2227,-0.2227,0,0,-0.1903,-0.1931,-0.1951,-0.2,-0.2027,-0.2058,-0.206,-0.2108,-0.2138,-0.213,-0.2191,-0.2204,-0.2205,-0.2245,-0.2267,-0.225,-0.2305,-0.2302,-0.2307,-0.2297,-0.229,-0.2296,-0.2301,-0.223,-0.2229,-0.2229,0,0,-0.1923,-0.1967,-0.1996,-0.2027,-0.2079,-0.2095,-0.2119,-0.216,-0.2189,-0.2241,-0.224,-0.2274,-0.2312,-0.2312,-0.2315,-0.2375,-0.2345,-0.239,-0.2421,-0.2417,-0.2422,-0.2426,-0.2406,-0.2407,-0.2394,-0.2395,-0.2395,0,-0.1936,-0.1975,-0.201,-0.2045,-0.2075,-0.2116,-0.215,-0.2183,-0.2237,-0.226,-0.2273,-0.2328,-0.2336,-0.2364,-0.2385,-0.2392,-0.2379,-0.2386,-0.2426,-0.2429,-0.2432,-0.241,-0.2411,-0.2398,-0.2398,-0.2397,-0.2397,0,-0.196,-0.2008,-0.2031,-0.2086,-0.2124,-0.2165,-0.221,-0.226,-0.2303,-0.2325,-0.2385,-0.2399,-0.2424,-0.244,-0.2432,-0.2463,-0.2445,-0.2435,-0.2398,-0.2441,-0.2417,-0.2416,-0.2403,-0.2402,-0.2401,-0.24,0,0,-0.1938,-0.203,-0.204,-0.2075,-0.2151,-0.2179,-0.2245,-0.23,-0.2339,-0.2398,-0.2438,-0.2478,-0.249,-0.2494,-0.2496,-0.2499,-0.2513,-0.2483,-0.2481,-0.2455,-0.2497,-0.2338,-0.2321,-0.2515,-0.2515,-0.2515,-0.2472,0,-0.1946,-0.201,-0.2058,-0.2125,-0.2158,-0.2224,-0.2275,-0.2335,-0.2387,-0.2438,-0.2466,-0.2505,-0.2509,-0.2527,-0.2535,-0.2519,-0.2515,-0.2525,-0.2465,-0.2462,-0.2309,-0.2316,-0.2516,-0.2472,-0.2471,-0.2471,-0.2471,0,-0.1935,-0.1986,-0.2049,-0.214,-0.2163,-0.2212,-0.2299,-0.2351,-0.2426,-0.2468,-0.2516,-0.2536,-0.2563,-0.2556,-0.255,-0.2559,-0.2533,-0.2515,-0.2513,-0.2337,-0.2301,-0.2419,-0.247,-0.247,-0.247,-0.247,-0.247,0,-0.1869,-0.1972,-0.2023,-0.2056,-0.2165,-0.2213,-0.2274,-0.2359,-0.2404,-0.2484,-0.2519,-0.2557,-0.2577,-0.2564,-0.2541,-0.255,-0.2513,-0.2515,-0.2344,-0.2333,-0.2463,-0.2459,-0.2495,-0.2495,-0.2495,-0.2496,-0.2496,0,-0.1829,-0.1875,-0.2004,-0.2031,-0.21,-0.2185,-0.2257,-0.2326,-0.241,-0.2439,-0.2526,-0.2536,-0.2583,-0.2571,-0.2542,-0.2429,-0.2512,-0.2334,-0.2305,-0.2492,-0.2492,-0.2463,-0.2459,-0.2494,-0.2494,-0.2495,-0.2495,0,-0.1735,-0.1822,-0.1892,-0.2025,-0.2069,-0.2116,-0.2246,-0.2277,-0.2383,-0.2423,-0.2447,-0.2525,-0.2499,-0.2514,-0.2482,-0.2406,-0.2329,-0.2269,-0.2459,-0.2444,-0.2153,-0.2154,-0.2064,-0.2058,-0.2052,-0.2048,-0.2044,0,-0.1687,-0.1714,-0.187,-0.1908,-0.1973,-0.2065,-0.2109,-0.2242,-0.2268,-0.2381,-0.2368,-0.2404,-0.2427,-0.225,-0.2294,-0.2212,-0.2189,-0.2142,-0.2151,-0.2125,-0.2107,-0.2116,-0.2124,-0.2036,-0.2035,-0.2033,-0.2032,0,-0.1589,-0.1661,-0.1716,-0.1806,-0.1872,-0.1939,-0.2017,-0.2026,-0.2146,-0.2266,-0.2214,-0.2187,-0.2155,-0.2121,-0.2074,-0.2022,-0.2169,-0.2088,-0.2098,-0.2106,-0.209,-0.208,-0.2093,-0.2014,-0.2017,-0.2018,-0.2019,0,-0.1508,-0.1527,-0.161,-0.1669,-0.1752,-0.1772,-0.1845,-0.1858,-0.1908,-0.2032,-0.2002,-0.2043,-0.2117,-0.202,-0.1974,-0.1911,-0.1884,-0.1824,-0.1849,-0.1869,-0.1825,-0.1778,-0.1562,0,0,0,0,0,-0.1414,-0.1415,-0.1462,-0.152,-0.1595,-0.1643,-0.1752,-0.1821,-0.1943,-0.1844,-0.1918,-0.1871,-0.1806,-0.1837,-0.1726,-0.1892,-0.1899,-0.1757,-0.1848,-0.1914,-0.1935,-0.1902,0,0,0,0,0,0,-0.1346,-0.1382,-0.1407,-0.1375,-0.1379,-0.1443,-0.1506,-0.1594,-0.1557,-0.1683,-0.1652,-0.1745,-0.1709,-0.1821,-0.1678,-0.1686,-0.1702,-0.1794,-0.1789,-0.1902,-0.1921,-0.1938,-0.1911,0,0,0,0,0]},{"header":{"parameterUnit":"m.s-1","parameterCategory":2,"la1":30.2991,"la2":30.254,"lo1":-89.0895,"lo2":-89.0444,"dy":0.0017,"dx":0.0017,"nx":28,"ny":28,"refTime":"2023-11-02T03:00:00:Z","depth":"4","parameterNumber":3,"parameterNumberName":"V-component_of_CURRENTS"},"data":[0,0,0,0,0,0,0,0,0,0,0,0,0,0,0,0,0,0,0,0,0,0,0,0,0,0,0,0,0,0,0,0,0,0,0,0,0,0,0,0,0,0,0,0,0,0,0,0,0,0,0,0,0,0,0,0,0,0,-0.0262,-0.0261,0,-0.0198,-0.0197,-0.0196,-0.0156,-0.0156,-0.0156,-0.0156,-0.0041,-0.0039,-0.0036,0,0,0,0,0,0,0,0,0,0,0,0,0,-0.03,-0.0299,-0.0262,-0.0261,-0.026,-0.0198,-0.0197,-0.0196,-0.0156,-0.0156,-0.0156,-0.0156,-0.0042,-0.0039,-0.0035,0,0,0,0,0,0,0,0,0,0,0,0,0,-0.0264,-0.0299,-0.0262,-0.0233,-0.023,-0.0198,-0.0197,-0.0196,-0.0156,-0.0156,-0.0156,-0.0155,-0.0043,-0.0039,-0.0035,-0.0014,0,0,-0.0022,-0.002,0,0,0,0,0,0,0,0,-0.0266,-0.0263,-0.0238,-0.0235,-0.0231,-0.0185,-0.0169,-0.0133,-0.0156,-0.0184,-0.0156,-0.0155,-0.0085,-0.0077,-0.0066,-0.0009,-0.0004,-0.0021,-0.0019,-0.0017,-0.0016,0,0,0,0,0,0,0,-0.0269,-0.0265,-0.0236,-0.0237,-0.0233,-0.0206,-0.0201,-0.0162,-0.0136,-0.0181,-0.0178,-0.0172,-0.0083,-0.0071,-0.0063,-0.0002,-0.0022,-0.0018,-0.0015,-0.0013,0.0082,0.0082,0,0,0,0,0,0,-0.028,-0.0268,-0.0238,-0.0234,-0.0249,-0.0206,-0.0201,-0.02,-0.0137,-0.0128,-0.0172,-0.017,-0.0078,-0.0068,-0.0059,-0.0027,-0.0017,-0.0013,-0.0011,0.0082,0.0082,0.0082,0,0,0,0,0,0,-0.0282,-0.0279,-0.0241,-0.0249,-0.0243,-0.0206,-0.0205,-0.0199,-0.0188,-0.0131,-0.012,-0.0169,-0.0077,-0.0065,-0.0028,-0.0022,-0.0011,-0.0007,0.0082,0.0082,0.0082,0.0036,0,0,0,0,0,0,-0.0283,-0.028,-0.0287,-0.025,-0.0243,-0.0229,-0.0206,-0.0198,-0.0185,-0.0181,-0.0124,-0.0113,-0.0076,-0.0035,-0.0024,-0.0016,-0.0004,0.0082,0.0082,0.0082,0.0037,0.0034,0.0031,0,0,0,0,0,-0.0285,-0.0294,-0.0288,-0.0284,-0.0253,-0.0229,-0.0223,-0.0195,-0.0185,-0.0184,-0.0145,-0.0115,-0.0027,-0.0031,-0.0018,-0.0009,0.0082,0.0082,0.0082,0.0038,0.0035,0.0031,0,0,0,0,0,0,-0.0315,-0.029,-0.0282,-0.0284,-0.0263,-0.0223,-0.0221,-0.0201,-0.017,-0.0168,-0.0114,-0.0101,-0.0068,-0.0034,-0.004,0.0017,0.0032,0.0035,-0.0005,-0.0009,-0.0011,-0.0021,-0.0,0,0,0,0,0,-0.0326,-0.0329,-0.0298,-0.0302,-0.0293,-0.0259,-0.0248,-0.0229,-0.0196,-0.0183,-0.0142,-0.0098,-0.0058,-0.0031,0.0005,0.0039,0.0075,0.0053,0.005,0.0047,0.0048,0.0105,0.0107,0.0082,0.0082,0.0082,0,0,-0.034,-0.0327,-0.033,-0.0309,-0.0291,-0.0281,-0.0252,-0.024,-0.0227,-0.0174,-0.0148,-0.011,-0.0054,-0.0019,0.0,0.0012,0.0071,0.0047,0.0044,0.0047,0.0105,0.0108,0.011,0.0082,0.0082,0.0082,0,0,-0.0366,-0.0359,-0.0367,-0.0351,-0.0328,-0.0305,-0.0305,-0.0268,-0.0249,-0.0221,-0.0179,-0.0138,-0.008,-0.0033,-0.0003,0.0001,0.0048,0.001,-0.0003,0.0052,0.0055,0.0058,0.0097,0.0104,0.0015,0.0015,0.0015,0,-0.0386,-0.0388,-0.0365,-0.0364,-0.0355,-0.0319,-0.032,-0.0293,-0.0249,-0.0229,-0.0221,-0.0129,-0.0084,-0.0025,-0.0025,-0.0004,0.0027,0.0006,0.0048,0.0052,0.0056,0.0096,0.0104,0.0013,0.0013,0.0013,0.0014,0,-0.0408,-0.0412,-0.0415,-0.0403,-0.039,-0.0387,-0.0348,-0.0332,-0.0306,-0.0271,-0.022,-0.0159,-0.0102,-0.0081,-0.005,0.0001,0.0013,0.0032,0.0056,0.0056,0.0098,0.0107,0.001,0.0011,0.0011,0.0012,0,0,-0.0452,-0.0436,-0.044,-0.044,-0.0411,-0.0404,-0.0383,-0.0348,-0.0333,-0.0283,-0.0251,-0.0177,-0.0144,-0.0107,-0.0058,-0.0006,0.0044,0.0019,0.0023,0.0055,0.0155,0.0136,0.0145,0.0069,0.0071,0.0072,0.0171,0,-0.0479,-0.0492,-0.0471,-0.0481,-0.0482,-0.0444,-0.0427,-0.039,-0.0352,-0.0312,-0.0235,-0.0192,-0.0152,-0.0129,-0.0069,0.0016,0.0068,0.0015,0.0154,0.0158,0.0139,0.0155,0.0077,0.0178,0.018,0.0182,0.0183,0,-0.0507,-0.0512,-0.0529,-0.0518,-0.0515,-0.0516,-0.0487,-0.0466,-0.0396,-0.0363,-0.03,-0.0241,-0.0153,-0.0129,0.0022,-0.0015,0.0062,0.0128,0.0134,0.0141,0.0157,0.0182,0.02,0.0199,0.0198,0.0196,0.0195,0,-0.0549,-0.0552,-0.0571,-0.0568,-0.0547,-0.055,-0.054,-0.0487,-0.0471,-0.0399,-0.0377,-0.0264,-0.0212,-0.0096,0.0037,0.0032,0.0198,0.0211,0.027,0.027,0.0277,0.0273,0.0316,0.0316,0.0315,0.0315,0.0315,0,-0.0578,-0.0595,-0.0599,-0.0609,-0.0635,-0.0601,-0.0611,-0.058,-0.0533,-0.051,-0.0414,-0.0369,-0.0202,-0.0087,0.0032,0.0177,0.0199,0.0272,0.0298,0.0253,0.0246,0.0283,0.0278,0.0319,0.0318,0.0317,0.0317,0,-0.0613,-0.0614,-0.0643,-0.0647,-0.0656,-0.0677,-0.0677,-0.0674,-0.0625,-0.0593,-0.0573,-0.0439,-0.0287,-0.0121,0.0077,0.0162,0.0307,0.0352,0.0284,0.0305,0.0342,0.0333,0.0428,0.0428,0.0428,0.0429,0.0429,0,-0.0627,-0.0645,-0.0687,-0.0715,-0.0725,-0.075,-0.0764,-0.073,-0.0719,-0.0633,-0.0614,-0.0471,-0.0365,-0.0094,0.0072,0.03,0.0328,0.0394,0.0376,0.0339,0.0356,0.0347,0.0338,0.0429,0.0429,0.0429,0.0429,0,-0.0653,-0.0677,-0.0702,-0.0765,-0.0803,-0.0831,-0.0843,-0.084,-0.0784,-0.0751,-0.0628,-0.0479,-0.0307,-0.0096,0.0081,0.0242,0.0347,0.0397,0.0397,0.0381,0.0342,0.0356,0.0347,0.043,0.043,0.043,0.043,0,-0.0677,-0.071,-0.0752,-0.0803,-0.0859,-0.0884,-0.0886,-0.0848,-0.0824,-0.0718,-0.0681,-0.0484,-0.0365,-0.0126,0.0036,0.0193,0.0229,0.0269,0.0277,0.0278,0.02,0.0126,0.0175,0,0,0,0,0,-0.0689,-0.0723,-0.0779,-0.0833,-0.089,-0.0913,-0.0921,-0.0905,-0.0858,-0.0778,-0.0721,-0.0554,-0.0293,-0.0176,-0.002,0.0024,0.0239,0.0207,0.0284,0.0434,0.0433,0.0366,0,0,0,0,0,0,-0.0696,-0.0751,-0.0777,-0.0845,-0.0885,-0.0933,-0.0938,-0.0905,-0.084,-0.0773,-0.0627,-0.054,-0.0281,-0.0384,-0.0025,0.0022,0.0086,0.0335,0.0338,0.0435,0.0434,0.0433,0.0364,0,0,0,0,0]}]]